GW4610 Weather Reports


time (UTC)temp
C
wind
direction
speed
KPH
gust
KPH
rain 1hr
cm
rain 24hr
cm
rain mn
cm
humidity
%
barometer
mb
20260507211720 17 301 8.0 11.3 0.00 0.00 0.00 36 1010.3
20260507211216 18 299 16.1 17.7 0.00 0.00 0.00 35 1010.3
20260507210714 18 325 4.8 16.1 0.00 0.00 0.00 38 1010.0
20260507210210 18 299 6.4 9.7 0.00 0.00 0.00 37 1010.0
20260507205706 20 226 9.7 16.1 0.00 0.00 0.00 35 1010.3
20260507205203 20 226 9.7 16.1 0.00 0.00 0.00 35 1010.3
20260507204700 20 307 9.7 11.3 0.00 0.00 0.00 38 1010.0
20260507204158 19 279 6.4 6.4 0.00 0.00 0.00 33 1010.0
20260507203655 17 290 6.4 9.7 0.00 0.00 0.00 37 1010.3
20260507203152 18 250 8.0 16.1 0.00 0.00 0.00 37 1010.3
20260507202647 19 307 9.7 14.5 0.00 0.00 0.00 35 1010.3
20260507202144 19 298 4.8 6.4 0.00 0.00 0.00 37 1010.3
20260507201645 20 290 6.4 11.3 0.00 0.00 0.00 37 1010.4
20260507201142 20 255 8.0 12.9 0.00 0.00 0.00 37 1010.4
20260507200638 19 308 4.8 9.7 0.00 0.00 0.00 34 1010.2
20260507200134 18 312 8.0 11.3 0.00 0.00 0.00 37 1010.3
20260507195631 17 308 6.4 9.7 0.00 0.00 0.00 37 1010.4
20260507195128 19 285 9.7 14.5 0.00 0.00 0.00 35 1010.4
20260507194626 19 283 3.2 9.7 0.00 0.00 0.00 36 1010.6
20260507194120 20 302 6.4 16.1 0.00 0.00 0.00 35 1010.4
20260507193618 20 351 0.0 0.0 0.00 0.00 0.00 36 1010.5
20260507193115 19 295 3.2 12.9 0.00 0.00 0.00 38 1010.6
20260507192611 20 307 6.4 11.3 0.00 0.00 0.00 35 1010.4
20260507192108 20 330 3.2 4.8 0.00 0.00 0.00 34 1010.5
20260507191603 19 296 6.4 17.7 0.00 0.00 0.00 35 1010.4
20260507191100 20 323 6.4 9.7 0.00 0.00 0.00 36 1010.5
20260507190558 20 284 4.8 9.7 0.00 0.00 0.00 32 1010.5
20260507190056 18 191 8.0 12.9 0.00 0.00 0.00 42 1010.7
20260507185554 18 291 14.5 17.7 0.00 0.00 0.00 39 1010.8
20260507185051 18 304 8.0 17.7 0.00 0.00 0.00 37 1010.6
20260507184549 19 290 14.5 20.9 0.00 0.00 0.00 39 1010.6
20260507184047 19 264 6.4 14.5 0.00 0.00 0.00 38 1010.9
20260507183542 20 238 3.2 6.4 0.00 0.00 0.00 37 1010.8
20260507183039 19 287 3.2 11.3 0.00 0.00 0.00 37 1010.9
20260507182536 19 305 6.4 11.3 0.00 0.00 0.00 39 1010.8
20260507182032 19 297 6.4 14.5 0.00 0.00 0.00 36 1010.7
20260507181529 19 250 0.0 12.9 0.00 0.00 0.00 37 1011.0
20260507181025 20 270 8.0 9.7 0.00 0.00 0.00 40 1011.0
20260507180521 19 262 0.0 4.8 0.00 0.00 0.00 46 1010.9
20260507180019 20 299 4.8 6.4 0.00 0.00 0.00 35 1011.1
20260507175515 20 293 11.3 17.7 0.00 0.00 0.00 42 1011.1
20260507175012 19 290 3.2 6.4 0.00 0.00 0.00 36 1011.2
20260507174509 18 303 3.2 9.7 0.00 0.00 0.00 36 1011.5
20260507174007 18 277 4.8 6.4 0.00 0.00 0.00 43 1011.3
20260507173504 18 334 6.4 6.4 0.00 0.00 0.00 44 1011.3
20260507173001 18 265 6.4 9.7 0.00 0.00 0.00 39 1011.6
20260507172457 18 272 6.4 9.7 0.00 0.00 0.00 40 1011.5
20260507171954 18 307 3.2 9.7 0.00 0.00 0.00 38 1011.4
20260507171449 18 288 6.4 14.5 0.00 0.00 0.00 38 1011.7
20260507170947 18 314 6.4 14.5 0.00 0.00 0.00 39 1011.9
20260507170443 18 322 11.3 14.5 0.00 0.00 0.00 43 1012.2
20260507165940 17 288 1.6 4.8 0.00 0.00 0.00 43 1012.1
20260507165436 17 306 4.8 12.9 0.00 0.00 0.00 39 1012.3
20260507164931 18 303 8.0 11.3 0.00 0.00 0.00 42 1012.2
20260507164429 18 231 3.2 4.8 0.00 0.00 0.00 45 1012.3
20260507163926 17 355 1.6 4.8 0.00 0.00 0.00 46 1012.5
20260507163423 17 20 9.7 17.7 0.00 0.00 0.00 48 1012.5
20260507162920 17 294 6.4 14.5 0.00 0.00 0.00 43 1012.7
20260507162415 16 94 8.0 9.7 0.00 0.00 0.00 47 1012.8
20260507161913 16 302 6.4 9.7 0.00 0.00 0.00 47 1012.9
20260507161409 17 266 3.2 11.3 0.00 0.00 0.00 43 1012.6
20260507160906 17 284 3.2 6.4 0.00 0.00 0.00 48 1012.9
20260507160401 16 292 4.8 9.7 0.00 0.00 0.00 48 1013.0
20260507155858 16 127 6.4 11.3 0.00 0.00 0.00 47 1013.0
20260507155354 15 42 1.6 11.3 0.00 0.00 0.00 44 1013.2
20260507154850 15 21 6.4 20.9 0.00 0.00 0.00 46 1013.1
20260507154348 15 348 9.7 16.1 0.00 0.00 0.00 47 1013.3
20260507153845 16 312 14.5 16.1 0.00 0.00 0.00 47 1013.2
20260507153341 16 309 4.8 11.3 0.00 0.00 0.00 45 1013.3
20260507152838 17 22 6.4 9.7 0.00 0.00 0.00 49 1013.5
20260507152334 16 120 0.0 0.0 0.00 0.00 0.00 47 1013.5
20260507151830 16 283 4.8 4.8 0.00 0.00 0.00 49 1013.6
20260507151327 15 106 3.2 4.8 0.00 0.00 0.00 49 1013.8
20260507150824 16 163 6.4 6.4 0.00 0.00 0.00 53 1013.7
20260507150320 16 137 3.2 11.3 0.00 0.00 0.00 53 1013.9
20260507145816 15 167 9.7 11.3 0.00 0.00 0.00 57 1014.0
20260507145313 16 189 1.6 4.8 0.00 0.00 0.00 56 1014.3
20260507144810 16 158 1.6 4.8 0.00 0.00 0.00 60 1014.2
20260507144307 14 240 1.6 4.8 0.00 0.00 0.00 50 1014.4
20260507143804 14 346 0.0 6.4 0.00 0.00 0.00 54 1014.7
20260507143301 15 52 0.0 3.2 0.00 0.00 0.00 51 1014.6
20260507142757 14 294 4.8 9.7 0.00 0.00 0.00 54 1014.4
20260507142254 13 341 3.2 4.8 0.00 0.00 0.00 53 1014.6
20260507141750 13 230 4.8 4.8 0.00 0.00 0.00 49 1014.7
20260507141247 12 305 4.8 9.7 0.00 0.00 0.00 52 1014.9
20260507140743 13 310 6.4 9.7 0.00 0.00 0.00 50 1015.1
20260507140241 15 70 1.6 3.2 0.00 0.00 0.00 56 1015.0
20260507135738 14 314 3.2 4.8 0.00 0.00 0.00 55 1015.0
20260507135235 13 273 0.0 3.2 0.00 0.00 0.00 56 1014.9
20260507134731 12 284 0.0 3.2 0.00 0.00 0.00 56 1015.0
20260507134228 12 284 1.6 3.2 0.00 0.00 0.00 56 1015.4
20260507133724 13 279 0.0 3.2 0.00 0.00 0.00 52 1015.1
20260507133221 12 288 1.6 1.6 0.00 0.00 0.00 60 1015.4
20260507132718 12 304 0.0 0.0 0.00 0.00 0.00 54 1015.5
20260507132215 12 304 1.6 3.2 0.00 0.00 0.00 59 1015.6
20260507131711 12 340 0.0 1.6 0.00 0.00 0.00 56 1015.7
20260507131209 12 312 3.2 3.2 0.00 0.00 0.00 56 1015.7
20260507130705 12 318 1.6 4.8 0.00 0.00 0.00 57 1015.7
20260507130203 12 298 3.2 4.8 0.00 0.00 0.00 57 1015.7
20260507125702 11 297 1.6 3.2 0.00 0.00 0.00 64 1015.8
20260507125159 11 302 1.6 1.6 0.00 0.00 0.00 62 1016.0
20260507124655 11 244 0.0 1.6 0.00 0.00 0.00 64 1015.9
20260507124153 11 281 0.0 1.6 0.00 0.00 0.00 67 1015.9
20260507123651 11 297 0.0 1.6 0.00 0.00 0.00 67 1015.9
20260507123148 11 320 0.0 0.0 0.00 0.00 0.00 66 1015.8
20260507122643 11 7 0.0 0.0 0.00 0.00 0.00 66 1015.8
20260507122139 11 291 0.0 0.0 0.00 0.00 0.00 69 1015.6
20260507121635 11 292 0.0 0.0 0.00 0.00 0.00 67 1015.6
20260507121131 11 292 0.0 0.0 0.00 0.00 0.00 70 1015.6
20260507120627 11 302 0.0 0.0 0.00 0.00 0.00 67 1015.8
20260507120124 11 303 0.0 0.0 0.00 0.00 0.00 67 1015.5
20260507115621 11 302 0.0 0.0 0.00 0.00 0.00 72 1015.6
20260507115116 11 302 0.0 0.0 0.00 0.00 0.00 73 1015.5
20260507114613 10 302 0.0 0.0 0.00 0.00 0.00 74 1015.5
20260507114110 10 302 0.0 0.0 0.00 0.00 0.00 75 1015.6
20260507113607 10 302 0.0 0.0 0.00 0.00 0.00 74 1015.6
20260507113104 10 302 0.0 0.0 0.00 0.00 0.00 70 1015.5
20260507112602 10 302 0.0 0.0 0.00 0.00 0.00 72 1015.5
20260507112058 10 302 0.0 0.0 0.00 0.00 0.00 72 1015.4
20260507111555 10 302 0.0 0.0 0.00 0.00 0.00 71 1015.5
20260507111052 10 302 0.0 0.0 0.00 0.00 0.00 70 1015.2
20260507110548 10 302 0.0 0.0 0.00 0.00 0.00 68 1015.4
20260507110045 10 302 0.0 0.0 0.00 0.00 0.00 69 1015.4
20260507105542 10 303 0.0 0.0 0.00 0.00 0.00 70 1015.2
20260507105038 10 303 0.0 0.0 0.00 0.00 0.00 65 1015.0
20260507104536 10 302 1.6 3.2 0.00 0.00 0.00 66 1014.7
20260507104032 10 321 3.2 3.2 0.00 0.00 0.00 64 1014.9
20260507103528 10 338 0.0 1.6 0.00 0.00 0.00 63 1014.8
20260507103025 10 2 0.0 0.0 0.00 0.00 0.00 64 1014.7
20260507102521 10 353 0.0 0.0 0.00 0.00 0.00 64 1014.7
20260507102017 10 296 0.0 0.0 0.00 0.00 0.00 63 1014.7
20260507101513 10 7 0.0 1.6 0.00 0.00 0.00 63 1014.4
20260507101010 11 8 0.0 3.2 0.00 0.00 0.00 66 1014.2
20260507100507 11 15 0.0 0.0 0.00 0.00 0.00 64 1014.4
20260507100005 11 342 0.0 1.6 0.00 0.00 0.00 64 1014.4
20260507095503 11 350 0.0 3.2 0.00 0.00 0.00 64 1014.4
20260507094959 11 2 3.2 3.2 0.00 0.00 0.00 63 1014.3
20260507094455 11 347 4.8 4.8 0.00 0.00 0.00 63 1014.5
20260507093953 11 331 4.8 4.8 0.00 0.00 0.00 64 1014.6
20260507093450 11 332 4.8 6.4 0.00 0.00 0.00 66 1014.4
20260507092948 11 311 3.2 4.8 0.00 0.00 0.00 68 1014.4
20260507092444 11 308 4.8 4.8 0.00 0.00 0.00 68 1014.3
20260507091941 11 322 4.8 4.8 0.00 0.00 0.00 69 1014.3
20260507091438 11 15 1.6 3.2 0.00 0.00 0.00 68 1014.2
20260507090933 11 24 1.6 4.8 0.00 0.00 0.00 69 1014.1
20260507090430 11 328 1.6 4.8 0.00 0.00 0.00 71 1014.1
20260507085926 11 309 1.6 3.2 0.00 0.00 0.00 75 1014.1
20260507085424 11 349 0.0 0.0 0.00 0.00 0.00 74 1014.4
20260507084921 11 347 0.0 0.0 0.00 0.00 0.00 73 1014.3
20260507084418 11 298 0.0 0.0 0.00 0.00 0.00 72 1014.1
20260507083915 11 250 1.6 4.8 0.00 0.00 0.00 72 1014.0
20260507083411 11 18 0.0 0.0 0.00 0.00 0.00 74 1014.0
20260507082907 11 301 0.0 1.6 0.00 0.00 0.00 73 1014.0
20260507082403 11 305 3.2 4.8 0.00 0.00 0.00 73 1014.1
20260507081900 11 37 1.6 1.6 0.00 0.00 0.00 74 1014.2
20260507081356 11 314 3.2 4.8 0.00 0.00 0.00 74 1014.2
20260507080853 11 300 3.2 4.8 0.00 0.00 0.00 74 1014.1
20260507080349 11 349 0.0 3.2 0.00 0.00 0.00 76 1014.0
20260507075845 11 15 1.6 3.2 0.00 0.00 0.00 77 1014.0
20260507075341 11 295 1.6 3.2 0.00 0.00 0.00 78 1014.0
20260507074837 11 318 0.0 1.6 0.00 0.00 0.00 78 1013.8
20260507074335 11 346 1.6 4.8 0.00 0.00 0.00 78 1013.8
20260507073832 11 338 0.0 1.6 0.00 0.00 0.00 84 1013.7
20260507073329 11 8 0.0 1.6 0.00 0.00 0.00 81 1013.8
20260507072826 11 331 1.6 3.2 0.00 0.00 0.00 82 1013.9
20260507072323 11 326 0.0 1.6 0.00 0.00 0.00 84 1013.8
20260507071821 11 328 0.0 3.2 0.00 0.00 0.00 85 1013.8
20260507071317 11 295 0.0 0.0 0.00 0.00 0.00 85 1014.0
20260507070814 11 307 0.0 0.0 0.00 0.00 0.00 87 1013.8
20260507070311 11 307 0.0 0.0 0.00 0.00 0.00 88 1013.8
20260507065808 11 312 0.0 0.0 0.00 0.00 0.00 89 1013.8
20260507065306 11 316 0.0 0.0 0.00 0.00 0.00 88 1013.6
20260507064802 11 324 0.0 0.0 0.00 0.00 0.00 87 1013.8
20260507064300 11 255 0.0 0.0 0.00 0.00 0.00 84 1013.7
20260507063758 11 255 0.0 0.0 0.00 0.00 0.00 85 1013.9
20260507063254 11 255 0.0 0.0 0.00 0.00 0.00 85 1013.9
20260507062751 11 255 0.0 0.0 0.00 0.00 0.00 84 1014.0
20260507062248 11 255 0.0 0.0 0.00 0.00 0.00 84 1014.0
20260507061746 11 256 0.0 0.0 0.00 0.00 0.00 84 1014.0
20260507061244 11 256 0.0 0.0 0.00 0.00 0.00 83 1014.1
20260507060742 11 256 0.0 0.0 0.00 0.00 0.00 83 1014.1
20260507060238 11 256 0.0 0.0 0.00 0.00 0.00 82 1014.0
20260507055735 12 255 0.0 0.0 0.00 0.00 0.00 82 1014.1
20260507055230 12 256 0.0 1.6 0.00 0.00 0.00 82 1014.4
20260507054726 12 247 1.6 1.6 0.00 0.00 0.00 81 1014.2
20260507054224 12 243 0.0 1.6 0.00 0.00 0.00 82 1014.4
20260507053721 11 269 0.0 1.6 0.00 0.00 0.00 83 1014.1
20260507053219 11 266 0.0 0.0 0.00 0.00 0.00 83 1014.2
20260507052718 11 266 0.0 0.0 0.00 0.00 0.00 81 1014.0
20260507052213 12 266 0.0 0.0 0.00 0.00 0.00 82 1014.1
20260507051711 12 290 0.0 0.0 0.00 0.00 0.00 81 1014.1
20260507051208 12 290 0.0 0.0 0.00 0.00 0.00 81 1014.1
20260507050704 12 263 0.0 1.6 0.00 0.00 0.00 82 1014.1
20260507050201 12 253 0.0 0.0 0.00 0.00 0.00 81 1014.2
20260507045658 12 246 1.6 1.6 0.00 0.00 0.00 83 1014.0
20260507045155 12 255 0.0 0.0 0.00 0.00 0.00 83 1014.2
20260507044652 12 239 1.6 3.2 0.00 0.00 0.00 81 1014.2
20260507044148 12 239 0.0 0.0 0.00 0.00 0.00 83 1013.8
20260507043644 12 293 0.0 1.6 0.00 0.00 0.00 82 1014.1
20260507043142 12 199 0.0 0.0 0.00 0.00 0.00 82 1014.0
20260507042638 12 250 0.0 0.0 0.00 0.00 0.00 80 1014.3
20260507042133 12 242 0.0 1.6 0.00 0.00 0.00 80 1014.3
20260507041630 12 284 0.0 1.6 0.00 0.00 0.00 80 1014.3
20260507041126 12 302 1.6 3.2 0.00 0.00 0.00 79 1014.1
20260507040624 12 316 0.0 0.0 0.00 0.00 0.00 80 1014.1
20260507040120 12 299 0.0 0.0 0.00 0.30 0.30 83 1014.3
20260507035616 12 299 0.0 3.2 0.00 0.30 0.30 82 1014.2
20260507035112 12 307 1.6 1.6 0.00 0.30 0.30 82 1014.2
20260507034609 12 130 1.6 3.2 0.00 0.30 0.30 81 1013.6
20260507034107 12 136 1.6 3.2 0.00 0.30 0.30 80 1014.0
20260507033605 12 342 1.6 4.8 0.00 0.30 0.30 80 1014.3
20260507033102 12 285 1.6 3.2 0.00 0.30 0.30 80 1014.7
20260507032559 12 295 4.8 4.8 0.00 0.30 0.30 80 1014.6
20260507032055 12 56 1.6 6.4 0.00 0.30 0.30 80 1014.2
20260507031552 12 346 1.6 3.2 0.00 0.30 0.30 82 1013.9
20260507031049 12 92 1.6 4.8 0.00 0.30 0.30 82 1013.7
20260507030545 12 238 0.0 1.6 0.00 0.30 0.30 83 1014.2
20260507030043 12 26 1.6 3.2 0.00 0.30 0.30 82 1014.6
20260507025540 12 50 1.6 3.2 0.00 0.30 0.30 81 1014.2
20260507025038 12 60 6.4 6.4 0.00 0.30 0.30 81 1014.4
20260507024535 12 329 3.2 4.8 0.00 0.30 0.30 81 1014.3
20260507024032 12 325 3.2 9.7 0.00 0.30 0.30 82 1014.3
20260507023527 13 325 1.6 9.7 0.00 0.30 0.30 82 1014.5
20260507023026 13 345 1.6 6.4 0.00 0.30 0.30 84 1014.2
20260507022522 13 221 6.4 12.9 0.00 0.30 0.30 84 1014.2
20260507022017 13 128 1.6 1.6 0.00 0.30 0.30 83 1013.7
20260507021514 13 123 1.6 1.6 0.00 0.30 0.30 83 1013.4
20260507021010 13 17 6.4 9.7 0.00 0.30 0.30 83 1013.3
20260507020508 13 269 0.0 1.6 0.00 0.30 0.30 84 1013.5
20260507020004 13 27 0.0 3.2 0.00 0.30 0.30 83 1013.4
20260507015503 13 20 4.8 6.4 0.00 0.30 0.30 83 1013.4
20260507015001 13 324 0.0 3.2 0.00 0.30 0.30 83 1013.7
20260507014457 13 350 3.2 6.4 0.00 0.30 0.30 83 1013.6
20260507013952 13 24 0.0 1.6 0.00 0.30 0.30 84 1013.6
20260507013449 13 306 1.6 4.8 0.00 0.30 0.30 83 1013.6
20260507012946 13 326 6.4 11.3 0.00 0.30 0.30 83 1013.3
20260507012443 13 326 1.6 4.8 0.00 0.30 0.30 84 1013.2
20260507011940 13 57 4.8 12.9 0.00 0.30 0.30 83 1013.3
20260507011437 13 25 4.8 6.4 0.00 0.30 0.30 82 1013.4
20260507010937 13 340 3.2 4.8 0.00 0.30 0.30 82 1013.1
20260507010432 13 310 4.8 9.7 0.00 0.30 0.30 82 1013.0
20260507005929 13 300 6.4 11.3 0.00 0.30 0.30 82 1013.1
20260507005427 13 294 4.8 9.7 0.00 0.30 0.30 83 1012.8
20260507004923 13 319 4.8 6.4 0.00 0.30 0.30 82 1012.9
20260507004420 14 65 3.2 4.8 0.00 0.30 0.30 83 1012.7
20260507003917 14 29 3.2 4.8 0.00 0.30 0.30 82 1012.8
20260507003412 14 67 1.6 4.8 0.00 0.30 0.30 82 1013.3
20260507002908 14 42 0.0 3.2 0.00 0.30 0.30 82 1013.3
20260507002404 14 300 1.6 3.2 0.00 0.30 0.30 82 1013.6
20260507001902 14 302 3.2 3.2 0.00 0.30 0.30 81 1013.5
20260507001358 14 320 0.0 1.6 0.00 0.30 0.30 82 1013.0
20260507000855 15 328 3.2 6.4 0.00 0.30 0.30 81 1013.3
20260507000350 15 301 4.8 9.7 0.00 0.30 0.30 81 1013.0
20260506235847 15 39 0.0 3.2 0.00 0.30 0.30 81 1013.2
20260506235344 15 146 3.2 4.8 0.00 0.30 0.30 81 1013.3
20260506234835 15 313 0.0 3.2 0.00 0.30 0.30 81 1013.1
20260506234332 15 19 0.0 3.2 0.00 0.30 0.30 80 1012.8
20260506233830 15 260 3.2 11.3 0.00 0.30 0.30 79 1012.7
20260506233325 15 322 3.2 9.7 0.00 0.30 0.30 79 1012.7
20260506232823 16 340 3.2 4.8 0.00 0.30 0.30 78 1012.8
20260506232318 16 291 4.8 6.4 0.00 0.30 0.30 78 1012.6
20260506231815 16 298 3.2 4.8 0.00 0.30 0.30 77 1012.4
20260506231313 16 292 6.4 14.5 0.00 0.30 0.30 76 1012.2
20260506230810 16 312 4.8 12.9 0.00 0.30 0.30 77 1012.1
20260506230307 16 329 4.8 12.9 0.00 0.30 0.30 76 1011.7
20260506225803 16 314 6.4 12.9 0.00 0.30 0.30 78 1011.9
20260506225301 16 293 8.0 11.3 0.00 0.30 0.30 77 1011.9
20260506224757 16 297 4.8 9.7 0.00 0.30 0.30 76 1012.0
20260506224254 16 277 0.0 3.2 0.00 0.30 0.30 78 1012.0
20260506223749 16 233 3.2 11.3 0.00 0.30 0.30 78 1012.0
20260506223240 16 301 6.4 9.7 0.00 0.30 0.30 77 1011.9
20260506222737 16 258 3.2 9.7 0.00 0.30 0.30 78 1011.8
20260506222232 16 297 6.4 12.9 0.00 0.30 0.30 78 1011.8
20260506221730 16 301 3.2 6.4 0.00 0.30 0.30 76 1011.8
20260506221228 16 254 4.8 12.9 0.00 0.30 0.30 77 1011.8
20260506220725 17 303 4.8 9.7 0.00 0.30 0.30 77 1011.6
20260506220219 17 291 6.4 12.9 0.00 0.30 0.30 77 1011.8
20260506215717 17 268 3.2 6.4 0.00 0.30 0.30 80 1011.7
20260506215212 17 310 6.4 9.7 0.00 0.30 0.30 79 1011.7
20260506214709 17 294 4.8 9.7 0.00 0.30 0.30 80 1011.5
20260506214206 17 307 1.6 9.7 0.00 0.30 0.30 80 1011.3
20260506213705 17 292 3.2 4.8 0.00 0.30 0.30 78 1011.2
20260506213202 17 300 1.6 9.7 0.00 0.30 0.30 79 1011.0
20260506212659 17 331 8.0 12.9 0.00 0.30 0.30 80 1010.8
20260506212154 18 311 4.8 6.4 0.00 0.30 0.30 79 1010.7